Wind_Speed
46 46 45 44 43 43 43 42 43 45 46 46 47 47 47 48 48 44 43 44 40 33 31 32 31 30 27 24 23 23 22 21 18 14 11 9 6 4 3 2 1 3 5 7 8 9 11 12 14 16 18 19 20 21 21 22 22 22 22 21 20 19 18 17 16 15 13 13 12 12 12 13 14 14 15 15 15 16 15 15 15 15 16 17 17 18
47 47 47 46 45 44 43 43 44 45 46 47 48 48 48 49 50 49 47 47 45 39 36 37 36 32 29 26 25 26 25 23 20 17 15 12 10 8 6 5 4 2 2 5 6 7 9 11 12 14 17 18 19 20 21 22 23 23 23 22 21 20 19 18 18 17 15 14 14 14 14 15 15 15 15 15 15 16 16 16 17 18 19 19 19 21
46 47 48 48 48 46 45 44 45 45 45 47 47 49 50 51 51 51 49 48 48 46 40 39 39 35 31 29 28 29 28 25 22 20 19 16 13 10 9 7 6 5 3 2 4 5 7 9 10 12 16 18 18 18 19 21 22 23 23 23 22 21 20 19 18 19 18 16 16 16 17 17 16 16 16 16 17 17 18 19 20 20 20 20 22 24
46 47 49 49 50 49 48 46 46 46 46 47 48 50 51 52 51 51 50 50 50 50 44 39 40 38 35 32 30 30 30 28 26 25 23 19 15 13 11 9 8 7 6 3 2 3 5 7 8 10 13 16 17 17 18 19 21 22 23 23 23 21 21 20 19 19 19 19 18 18 18 18 18 18 18 19 19 20 20 20 20 21 22 23 24 27
45 47 48 50 51 50 50 48 47 46 47 47 48 50 52 52 52 51 51 52 51 52 50 45 42 40 38 37 35 33 32 31 29 27 24 21 18 16 12 10 9 8 8 6 4 3 3 5 7 8 10 14 16 16 16 18 19 21 22 23 23 22 22 21 20 20 20 20 20 20 20 20 20 21 21 22 21 21 21 21 22 23 24 26 28 30
43 45 47 49 50 51 51 50 48 47 47 48 49 50 51 52 51 52 53 54 54 53 53 50 45 42 41 40 38 36 35 35 31 28 26 23 21 19 15 12 10 9 9 8 6 4 2 3 5 6 8 12 14 14 15 16 18 20 21 22 23 23 23 22 21 21 21 21 21 21 21 21 22 22 23 23 22 22 22 21 23 25 27 28 30 31
40 43 45 47 49 51 52 51 51 49 48 48 49 49 50 50 51 53 55 56 56 54 52 51 48 45 44 43 42 38 37 37 34 29 27 25 23 20 16 14 13 11 11 10 10 8 5 3 3 4 7 10 13 14 14 15 16 18 20 22 23 23 23 23 22 21 21 22 22 22 22 22 22 22 22 22 22 23 23 21 24 27 29 30 30 30
37 40 42 45 47 49 51 52 52 52 51 50 49 49 50 50 51 54 56 57 58 56 54 53 51 48 47 46 46 42 38 38 36 32 28 27 26 22 19 17 15 14 13 13 12 10 8 6 4 3 5 9 12 13 13 14 15 17 19 21 22 23 23 23 23 22 22 22 22 22 22 22 22 21 21 22 22 24 25 24 25 28 29 30 30 30
34 37 40 42 45 47 50 52 53 54 53 51 50 51 51 51 52 54 56 58 58 57 56 55 53 52 50 48 49 46 41 40 39 36 32 30 29 25 22 20 18 16 15 15 14 12 11 9 6 4 4 7 10 12 12 13 14 16 17 19 21 22 22 23 23 22 22 21 21 21 20 21 21 21 21 22 23 25 26 26 27 28 29 30 30 30
33 35 37 39 42 45 48 51 52 54 54 51 52 53 52 53 54 56 58 58 58 58 58 56 54 54 53 50 50 49 46 44 42 39 36 33 31 28 26 23 21 19 18 16 15 14 13 12 9 6 5 5 8 11 12 12 13 15 16 17 19 21 22 22 22 22 22 22 21 21 20 19 20 21 21 22 24 25 26 26 27 28 29 29 29 30
34 36 37 39 40 43 46 49 51 54 55 54 55 54 53 54 55 57 58 58 59 59 59 56 54 56 56 53 50 50 49 47 44 42 38 35 33 31 29 26 24 22 21 18 16 16 15 14 12 9 7 6 7 9 11 12 13 14 15 15 17 19 20 21 22 22 22 22 22 22 21 21 21 21 22 23 24 25 26 26 27 27 28 28 28 28
34 36 38 39 41 42 44 46 49 52 54 56 57 56 55 56 57 58 58 57 59 60 58 57 56 57 59 56 52 53 53 50 47 45 42 38 36 34 31 29 27 25 23 21 19 17 16 16 15 12 10 9 8 9 10 11 11 13 15 15 15 17 18 20 21 21 21 22 22 22 22 22 22 22 23 23 24 25 25 26 26 26 27 27 26 27
34 35 38 40 42 43 44 46 48 51 54 55 57 58 58 57 58 60 59 58 60 60 59 59 59 58 60 60 56 56 56 52 49 48 45 41 38 36 34 32 30 28 26 24 22 19 17 17 17 16 13 12 11 9 10 10 10 11 14 15 15 15 16 17 19 20 20 21 21 21 22 22 22 23 23 23 24 24 25 25 25 26 26 26 25 26
33 35 37 39 42 44 45 47 48 49 52 54 58 60 59 58 59 60 59 60 61 62 61 62 62 60 61 63 59 56 56 54 50 50 48 44 42 39 37 35 32 30 28 26 24 20 19 19 19 18 17 16 14 12 10 11 10 10 12 14 14 14 15 16 17 18 19 20 20 20 20 21 22 22 22 23 23 23 24 24 25 25 25 25 24 24
32 33 36 37 40 43 45 48 50 50 51 53 57 60 60 60 60 59 60 62 63 63 63 63 63 61 62 64 61 56 55 55 53 51 50 48 46 42 39 37 35 32 30 28 26 23 21 21 21 20 19 18 17 16 13 12 11 10 10 12 14 14 14 14 15 16 18 19 20 20 20 20 21 22 22 23 23 23 23 23 24 24 24 24 24 23
30 32 34 35 38 41 43 47 51 52 52 53 56 59 61 62 61 59 61 63 63 62 63 63 63 63 64 65 63 57 54 55 55 53 51 50 47 45 41 39 37 35 32 31 29 26 24 23 23 22 21 19 19 18 16 14 12 11 10 10 12 13 13 13 13 14 16 17 19 20 20 20 20 21 22 23 23 22 22 22 22 23 23 24 24 23
29 30 31 33 36 39 41 44 49 53 54 54 54 57 62 63 61 60 62 63 63 62 64 66 65 65 66 66 65 61 55 55 57 55 53 52 49 47 44 41 39 38 36 34 32 29 27 26 25 24 23 21 21 20 19 17 15 13 12 10 10 11 12 12 12 13 14 15 17 20 21 21 20 20 21 22 23 22 21 21 21 21 21 22 22 22
28 28 29 31 34 36 38 42 46 51 55 55 55 58 61 62 63 64 64 63 64 64 65 67 67 67 68 68 68 65 59 56 57 58 57 55 52 49 46 42 38 38 39 38 35 33 31 29 27 25 24 23 22 22 22 20 18 16 14 12 10 9 10 10 11 12 13 14 16 18 19 21 21 21 21 21 22 22 22 21 20 19 19 20 20 20
26 26 26 29 31 33 35 39 43 47 52 55 57 58 59 62 64 65 65 65 66 67 67 68 69 68 69 71 70 69 65 59 57 59 59 57 55 52 49 44 38 37 41 41 38 35 33 32 30 27 26 26 25 24 23 23 21 19 17 15 12 11 10 10 10 11 13 14 14 16 17 19 20 20 21 21 22 22 22 21 19 18 17 17 17 17
25 24 25 26 28 30 32 36 40 44 48 52 57 59 59 63 66 66 67 67 67 69 70 71 70 69 70 72 72 71 69 62 57 57 59 59 58 55 52 50 44 40 43 45 41 37 36 35 33 30 28 27 27 26 25 24 23 21 19 17 15 12 11 11 10 11 12 13 14 15 16 17 18 19 19 20 21 21 21 20 19 18 17 16 15 15
23 23 23 24 25 27 30 33 37 41 43 47 54 59 61 64 66 67 69 70 70 71 72 73 72 70 70 72 74 75 71 64 59 56 58 61 61 59 56 55 53 48 46 46 44 40 38 37 35 33 30 29 28 28 27 26 25 24 22 20 17 15 13 12 11 11 11 11 12 13 14 15 15 16 17 17 18 18 19 19 19 18 17 15 14 13
21 21 21 22 23 24 27 31 34 39 42 44 50 57 62 64 65 67 71 73 74 73 73 74 72 70 70 70 74 76 71 66 62 57 57 63 64 64 61 58 58 54 48 47 47 43 40 39 38 35 33 31 30 30 30 28 26 25 24 23 20 18 16 14 13 13 12 12 11 10 11 12 13 13 14 14 14 15 15 16 16 16 16 15 14 12
19 19 19 20 22 22 24 28 32 37 41 43 47 53 61 64 65 68 72 75 76 75 75 76 73 71 71 69 72 77 70 65 66 61 60 66 68 67 65 61 60 59 53 50 49 46 43 41 40 38 36 34 33 32 31 30 28 26 25 24 23 21 19 16 16 16 15 14 12 10 10 9 10 10 10 11 11 11 11 12 12 12 13 13 13 12
19 19 18 18 20 21 22 24 28 33 38 40 44 50 58 65 66 68 72 75 76 77 77 77 75 73 73 68 69 75 66 59 67 68 65 68 70 69 67 63 61 61 58 54 51 48 46 43 41 40 39 37 35 33 31 30 29 27 25 24 23 23 22 19 18 18 17 17 15 13 12 10 9 8 8 8 8 8 8 8 8 8 9 9 9 9
19 18 18 18 18 19 20 22 23 28 33 37 42 48 55 63 65 67 73 75 76 78 79 79 77 74 72 67 68 74 67 59 66 70 67 67 69 69 67 65 63 62 61 57 52 50 48 45 44 43 41 39 37 35 33 31 29 28 26 24 23 23 23 22 20 20 19 19 18 17 15 14 12 10 9 8 7 7 6 5 5 5 5 5 5 6
19 19 18 18 18 17 18 19 20 22 27 34 40 47 54 61 65 67 73 76 77 79 80 80 78 75 72 70 72 75 70 65 68 70 67 65 68 70 68 65 64 62 61 58 54 52 51 49 47 45 43 41 40 37 35 33 31 28 27 25 24 24 24 23 23 22 22 22 21 20 18 17 15 14 13 12 10 10 9 8 7 6 5 5 4 3
19 19 19 18 17 16 16 17 17 19 23 30 39 47 53 60 65 69 73 77 78 78 79 80 79 77 74 73 74 74 72 70 70 70 67 65 67 71 69 66 64 63 62 60 58 55 52 51 49 47 45 44 42 40 38 35 33 31 29 27 26 26 26 25 24 25 25 24 23 22 21 19 18 17 16 16 15 14 13 12 11 10 10 9 8 7
19 20 19 18 17 16 15 15 16 16 19 27 37 47 52 56 61 69 74 76 77 78 80 80 79 79 77 73 74 76 75 73 72 72 70 65 65 69 70 68 66 65 64 63 61 58 53 52 51 49 47 46 45 43 41 38 36 34 32 31 29 29 29 28 27 27 27 26 25 24 23 22 21 21 20 19 18 17 16 15 14 13 12 12 11 9
18 19 19 18 17 17 16 15 15 16 16 21 31 43 52 55 58 67 74 77 79 79 80 81 78 79 79 74 74 78 77 73 74 77 75 67 64 65 67 68 68 66 65 63 61 58 55 52 52 51 49 49 47 46 44 41 39 37 35 34 33 33 33 32 30 29 29 28 27 26 26 25 24 24 22 21 20 20 19 18 17 15 14 13 12 10
17 18 18 18 17 17 16 15 15 15 15 17 24 36 49 56 58 62 71 78 80 78 79 80 77 75 76 74 74 78 79 76 76 81 79 70 64 64 64 66 68 66 64 63 61 59 56 54 53 52 51 51 49 48 47 45 43 41 38 37 37 37 36 36 34 33 31 30 29 28 28 28 28 26 24 23 23 24 22 20 19 17 15 13 12 11
16 17 18 17 18 18 17 15 15 15 15 16 20 29 42 53 57 59 66 76 80 79 80 81 78 73 71 72 76 77 77 77 78 82 82 72 64 64 65 65 68 67 64 64 63 60 58 56 52 51 52 53 53 51 50 48 46 45 43 41 41 41 40 39 37 36 34 32 30 31 31 31 30 28 27 26 26 26 24 22 20 18 16 14 13 12
16 17 18 17 17 18 18 16 15 15 15 15 18 23 33 45 54 58 63 71 78 81 81 82 83 77 72 73 77 77 74 75 78 83 86 77 65 64 68 66 66 68 64 62 62 60 59 55 51 50 53 55 57 55 53 52 50 48 47 45 44 43 42 41 40 38 36 34 33 34 35 34 33 31 30 29 29 27 27 25 23 21 19 18 16 15
16 16 17 17 17 18 18 17 16 15 14 15 16 19 25 35 46 55 61 68 76 82 82 83 87 85 79 74 73 76 75 73 77 82 88 84 69 63 68 70 69 69 66 64 65 62 59 55 51 52 54 55 60 61 57 56 54 52 50 48 47 46 44 44 43 40 38 36 36 36 37 36 35 34 33 32 31 30 29 27 26 26 25 23 20 18
17 16 17 16 16 17 18 17 17 15 14 14 15 17 20 28 38 50 59 65 71 79 83 84 86 86 82 69 64 74 79 73 74 79 86 87 75 64 67 71 71 71 69 68 69 66 62 59 54 52 50 51 58 63 61 59 58 56 54 52 50 49 48 47 46 43 42 40 37 38 39 40 39 38 36 36 34 33 32 30 29 27 27 26 24 23
17 17 16 16 15 16 17 17 17 16 16 15 15 15 17 24 32 44 56 62 68 75 81 84 85 84 80 70 63 73 81 77 75 76 81 87 80 68 66 68 70 73 70 69 70 69 67 66 61 56 53 51 54 59 61 61 60 58 57 55 53 52 50 49 48 46 45 43 41 41 43 43 42 41 40 39 38 37 36 35 32 29 28 28 27 27
17 17 17 16 15 15 16 17 16 16 16 15 14 15 17 21 27 37 51 60 65 71 77 82 85 82 79 76 73 75 79 79 77 73 77 87 83 71 67 64 65 71 73 70 70 70 71 73 69 63 60 59 59 59 60 61 61 60 59 58 56 55 53 52 51 50 49 48 47 47 47 46 44 44 43 43 42 41 40 38 36 34 31 29 29 30
18 18 17 17 16 16 16 16 16 16 16 16 15 15 16 19 24 32 44 56 64 71 75 79 82 81 77 78 79 77 76 77 77 74 77 86 87 78 71 66 62 67 73 73 72 72 73 76 76 69 64 65 65 63 62 62 61 61 62 61 60 59 57 55 55 54 53 52 50 49 48 46 46 46 47 47 46 45 43 42 40 38 36 33 33 35
19 19 19 18 18 18 17 16 16 16 15 16 17 16 15 17 22 28 39 52 61 70 76 78 81 82 79 78 79 76 71 73 77 78 78 83 89 85 78 73 66 66 72 76 76 75 73 75 78 75 68 65 63 61 61 62 63 63 63 63 63 62 60 59 57 57 56 54 52 49 47 47 47 48 51 50 49 48 46 45 44 43 41 39 38 40
19 20 20 19 19 19 18 17 16 16 15 16 17 17 15 15 18 23 33 44 53 64 73 77 82 83 75 71 76 76 72 72 76 79 80 82 88 89 85 80 73 67 70 76 78 78 75 74 78 80 75 70 66 62 59 60 62 64 65 65 65 65 64 62 60 59 57 56 54 50 49 49 48 50 52 50 49 50 50 48 47 46 45 43 41 42
19 20 21 20 20 21 20 19 17 15 15 17 18 17 16 14 15 18 26 37 47 58 66 70 79 82 70 64 73 77 75 77 78 79 82 86 89 89 89 87 81 73 72 75 76 77 77 74 76 81 81 76 72 69 64 61 62 63 65 66 67 67 67 65 62 60 58 57 56 53 52 52 51 52 53 51 50 52 53 52 51 49 48 46 44 45
19 20 21 21 21 22 22 20 19 17 15 17 18 18 16 15 14 15 20 32 42 52 60 64 71 79 71 66 74 79 78 83 84 81 82 88 90 88 88 89 87 79 76 77 75 73 75 77 77 79 80 79 76 73 70 67 65 64 65 66 67 68 69 68 65 62 59 58 58 58 57 56 55 55 55 53 53 55 55 54 53 52 51 51 49 48
20 20 21 22 22 22 22 21 21 19 16 17 18 18 16 15 15 13 16 26 35 45 57 62 68 76 73 66 72 80 82 86 88 86 83 84 87 88 86 88 89 82 76 79 79 73 72 78 81 79 77 76 75 72 70 69 68 67 66 68 69 69 70 70 67 64 61 59 59 60 60 59 60 59 57 56 57 57 55 54 54 54 54 54 53 52
22 22 22 22 21 22 23 22 22 21 19 17 18 18 17 16 16 13 12 18 29 41 52 59 67 78 74 62 63 75 82 83 84 85 85 83 84 88 87 87 91 86 76 76 81 79 73 74 81 82 78 76 74 72 68 67 68 69 68 68 70 70 69 69 68 66 64 62 61 62 62 63 64 63 61 61 61 59 57 55 55 55 54 53 53 54
24 24 23 22 22 22 23 23 23 23 22 19 18 17 17 17 17 15 12 15 25 38 47 52 62 75 76 64 57 64 76 83 81 79 81 82 84 88 89 87 89 90 80 72 77 85 80 74 78 84 83 80 78 76 73 69 68 70 69 67 69 70 69 69 69 68 67 66 65 64 64 65 65 63 64 65 63 61 61 61 59 58 56 56 56 57
27 26 25 24 23 23 23 23 23 24 24 22 19 17 17 18 17 17 15 15 21 34 45 49 56 69 77 73 65 61 68 79 81 76 76 79 81 85 89 87 86 90 87 75 71 80 85 80 78 82 86 85 83 82 81 78 75 74 72 69 69 70 71 71 72 71 70 69 69 68 67 67 66 63 65 66 64 62 64 64 63 62 60 59 59 59
29 28 27 27 25 24 23 24 24 24 24 23 21 18 18 19 19 18 17 16 18 27 40 47 52 63 75 79 76 70 66 71 78 80 79 79 79 81 86 88 86 87 89 82 73 74 81 83 79 79 84 87 87 86 85 84 82 81 79 75 71 69 69 69 71 72 72 71 71 71 70 70 68 67 68 69 66 65 66 66 65 63 62 60 59 59
31 30 29 29 28 26 25 25 24 24 24 24 23 20 19 19 19 19 18 19 18 20 31 41 49 60 72 78 79 78 73 73 77 80 80 81 82 82 84 87 87 85 86 85 79 74 76 80 79 77 79 84 87 88 87 85 83 82 81 80 77 74 70 69 69 71 74 75 74 74 72 71 70 69 70 71 70 69 69 69 68 67 66 64 61 59
32 33 32 31 30 29 28 26 25 25 25 25 24 22 20 19 19 20 20 20 20 19 23 32 43 55 68 75 79 82 83 84 84 80 77 81 86 86 87 87 86 85 85 85 82 79 77 77 78 77 77 79 82 86 87 86 83 80 79 79 81 81 78 74 71 71 74 77 79 79 78 76 75 73 73 73 73 72 72 72 71 70 70 70 68 64
34 35 34 33 33 32 30 28 26 26 27 27 25 23 21 19 20 21 21 21 22 22 22 26 35 49 62 72 79 84 86 90 93 87 80 81 84 85 87 89 87 86 88 87 84 83 82 80 77 77 77 77 78 81 84 84 83 82 81 79 80 81 81 79 75 73 73 75 78 81 82 81 80 78 76 75 75 75 75 75 75 75 74 74 74 72
36 36 35 34 35 33 31 29 28 27 28 28 27 25 23 21 20 21 23 23 23 24 23 24 29 42 56 68 78 84 84 88 96 95 86 81 81 80 83 89 89 88 90 90 87 86 87 86 83 79 77 77 77 78 79 80 81 82 83 81 78 77 78 78 77 76 74 73 75 77 80 81 81 79 77 75 74 73 73 74 75 76 77 78 78 79
38 37 36 36 36 35 32 31 30 29 30 30 29 27 25 23 21 22 24 24 24 26 27 27 29 38 51 64 75 83 85 86 94 99 93 85 80 76 79 87 90 90 91 93 90 87 87 89 90 87 83 80 78 77 78 79 79 79 81 81 79 76 74 73 73 74 73 72 72 73 75 76 78 77 76 74 72 70 69 69 70 72 74 77 80 82
Wind_Direction
238 238 238 236 233 231 227 224 222 221 220 217 217 216 215 215 214 213 214 213 211 209 208 210 210 208 209 208 206 207 214 222 222 214 210 212 206 196 197 178 126 68 61 55 48 44 45 49 54 61 61 56 52 51 53 55 55 55 56 57 60 62 66 71 77 84 94 106 115 119 118 116 116 118 118 117 115 114 116 114 110 106 102 96 90 83
237 237 238 238 236 233 230 226 223 222 219 218 217 216 215 214 213 212 212 212 211 209 209 212 211 208 209 208 205 207 212 217 219 216 209 210 209 196 192 195 179 157 84 65 59 51 48 50 52 59 64 61 55 53 53 55 56 56 57 58 60 62 65 70 77 81 86 94 104 112 114 113 112 114 115 114 113 110 109 109 107 104 99 93 88 87
236 236 237 237 237 236 232 228 225 223 220 219 217 216 215 214 213 212 213 212 211 211 211 214 213 209 207 208 206 206 211 214 215 217 212 208 210 205 195 196 193 183 168 93 75 66 55 53 52 57 65 65 60 56 54 54 55 56 57 59 61 63 66 70 76 82 84 88 95 103 108 108 106 107 107 108 108 107 106 106 104 99 95 91 91 94
235 235 236 236 237 236 234 230 226 224 221 219 217 217 215 214 213 212 213 213 211 212 212 213 213 207 203 206 208 207 209 212 212 214 216 209 206 211 205 200 201 193 188 172 117 88 67 60 56 56 64 69 65 60 57 56 56 56 57 60 62 64 67 72 78 83 86 89 94 100 103 103 102 102 104 104 104 104 104 103 99 95 93 95 97 99
235 234 234 235 236 236 236 233 229 225 223 220 218 218 216 214 213 211 212 213 211 211 212 211 209 203 201 206 210 210 209 212 212 212 218 215 207 212 210 202 206 201 196 193 171 136 85 69 65 61 65 71 70 64 61 60 59 58 58 60 63 66 68 73 79 85 87 90 95 100 101 101 100 101 102 102 101 102 100 97 97 96 96 99 100 99
236 235 234 234 235 235 236 235 232 229 225 223 220 219 217 214 213 212 212 212 211 210 212 211 207 201 200 205 209 210 209 210 212 210 216 219 215 215 210 199 204 205 200 196 187 176 150 97 81 71 70 76 76 70 66 65 64 63 61 62 64 67 70 73 79 84 88 90 94 99 100 100 101 101 101 100 98 97 97 95 96 99 101 102 100 98
239 237 235 234 234 234 235 235 234 231 228 225 222 220 218 214 214 214 212 212 211 209 211 211 207 201 199 205 208 208 208 209 210 208 212 220 220 219 213 202 201 204 203 199 192 186 179 155 116 88 76 80 82 77 72 71 70 68 66 65 65 68 70 74 78 84 87 89 92 95 98 99 99 98 97 96 95 94 96 99 99 101 102 102 102 100
241 240 237 236 234 233 233 234 233 233 230 226 223 221 218 214 214 215 213 213 212 209 210 209 206 200 197 204 210 208 206 208 208 206 209 217 220 217 214 209 203 203 206 205 199 191 184 177 156 123 90 85 87 84 79 76 75 73 71 69 68 68 70 74 78 83 87 90 91 93 95 95 94 93 92 91 92 93 96 101 101 102 103 103 103 103
244 243 240 237 236 234 233 233 232 233 231 227 224 221 219 216 215 215 213 213 212 209 209 207 205 199 194 201 211 210 207 208 208 206 207 213 218 215 213 212 207 205 209 211 206 198 189 186 177 157 121 96 93 91 87 83 82 79 75 73 72 71 71 73 77 82 87 90 92 93 93 93 92 91 90 90 91 93 96 100 103 104 106 106 106 104
247 246 243 240 238 235 233 232 230 231 231 228 226 223 219 217 216 215 214 213 212 210 209 207 206 201 194 198 208 210 208 208 208 207 206 209 215 215 213 212 208 206 210 213 212 206 196 191 190 180 163 129 107 101 95 90 88 87 82 78 76 74 73 73 76 80 86 90 92 93 93 93 93 93 93 92 92 94 98 101 105 108 109 109 109 106
249 247 245 242 240 237 234 232 230 230 230 228 227 224 220 218 216 215 214 212 212 211 209 207 207 203 197 198 206 210 210 209 208 208 206 208 213 214 213 213 210 207 210 212 212 213 205 196 196 198 192 169 132 117 108 98 94 93 90 85 81 78 77 76 77 79 83 89 93 95 94 94 93 94 94 94 94 96 99 104 107 110 112 112 111 109
253 248 245 243 242 239 236 233 229 229 228 227 227 225 221 218 217 215 213 212 212 212 209 207 208 205 199 198 202 208 212 210 208 209 206 207 212 214 215 214 212 209 210 211 210 211 209 201 197 200 202 190 163 137 124 112 103 98 96 93 89 84 81 80 79 80 82 86 92 96 97 96 95 94 94 94 95 98 101 106 109 112 114 115 115 114
257 252 247 243 240 239 238 235 231 228 226 225 225 226 223 219 217 215 212 211 212 211 208 207 208 205 201 199 197 203 210 210 209 211 208 207 211 214 216 216 214 212 211 212 210 208 208 205 199 198 200 195 181 161 142 130 117 107 103 101 97 92 88 85 83 84 84 86 90 95 99 100 99 97 96 96 97 100 104 109 113 115 117 118 118 117
259 254 249 244 241 238 236 236 233 229 226 224 224 225 224 221 218 216 212 210 211 210 208 206 207 205 202 200 197 200 207 208 209 212 210 209 212 214 216 217 215 214 214 214 213 209 207 207 204 199 199 197 188 177 163 149 137 124 113 109 105 100 95 92 90 88 89 89 91 94 98 102 103 102 100 99 100 103 107 113 117 118 120 121 121 120
258 254 250 246 243 238 235 234 233 231 226 222 222 223 224 222 219 216 213 211 210 210 208 207 207 206 203 201 198 199 204 205 208 213 212 211 212 214 216 218 217 215 214 215 214 211 209 208 206 203 201 199 192 185 178 165 155 147 132 120 115 110 104 100 97 94 93 94 94 95 98 101 104 106 105 103 103 105 110 115 120 122 122 123 123 122
257 254 251 248 244 241 237 234 232 231 227 223 221 221 222 222 220 216 214 212 210 209 210 208 207 207 205 201 199 199 201 203 206 212 214 213 211 212 215 218 219 216 214 215 214 211 211 211 208 205 203 200 197 192 186 180 172 165 155 139 128 122 116 110 106 102 98 97 97 97 98 100 103 106 107 107 106 108 112 118 123 125 125 126 126 125
258 254 252 250 247 244 241 236 232 230 228 224 220 218 220 221 219 217 215 213 210 209 210 209 207 207 205 202 200 199 198 200 205 211 215 215 213 210 213 216 218 218 215 215 214 210 212 214 210 207 204 201 202 199 193 189 185 179 173 163 148 137 129 122 115 111 106 102 101 100 99 100 101 103 106 108 109 109 113 119 124 127 128 129 129 129
260 256 253 251 249 247 245 241 235 231 229 225 220 218 218 218 218 216 215 213 210 209 211 211 208 207 205 203 202 201 198 196 202 210 214 217 216 211 212 214 216 220 219 216 215 211 212 216 214 209 205 202 203 203 200 196 193 190 187 181 171 159 147 137 127 121 116 112 107 105 103 102 100 100 101 102 106 109 112 117 123 128 131 132 133 132
262 258 254 252 251 249 247 245 241 234 229 225 221 218 215 215 216 216 214 213 211 209 210 211 210 207 205 203 201 201 200 196 197 206 212 216 218 214 211 210 211 220 222 219 216 212 211 215 216 212 206 202 203 205 206 204 200 198 196 193 188 180 170 159 146 134 128 123 118 113 108 106 103 99 98 97 98 102 106 113 120 127 133 136 137 137
264 260 257 254 253 251 248 245 243 239 232 226 223 219 215 214 214 214 213 213 212 209 209 210 210 207 205 204 202 201 203 199 194 201 209 215 218 216 211 207 207 215 221 220 217 213 212 215 217 215 209 203 203 204 207 209 206 205 203 202 199 193 188 182 169 154 140 133 128 122 116 111 107 103 100 97 95 96 99 103 110 118 127 135 140 143
267 265 261 257 254 252 250 245 241 240 235 227 223 219 214 213 212 212 212 212 212 211 209 210 210 207 204 205 203 201 202 201 194 195 205 213 217 218 213 208 207 212 217 218 217 214 213 215 217 217 213 207 205 205 206 209 209 209 208 207 206 203 200 197 188 178 165 150 138 131 124 117 112 108 105 102 99 97 98 99 101 105 111 121 131 140
270 270 268 265 259 254 252 247 240 239 235 228 223 218 214 212 211 211 211 211 211 210 210 210 209 207 205 205 205 202 203 204 198 193 200 210 215 218 215 210 209 213 216 217 217 215 213 215 217 218 216 212 209 207 207 209 211 212 212 212 212 210 208 204 200 197 190 177 162 148 138 128 121 115 111 107 103 101 100 100 101 102 103 106 113 121
273 274 272 271 267 260 254 248 240 237 235 231 225 218 213 210 209 209 210 211 210 209 210 210 207 207 205 204 204 201 202 206 203 194 196 206 213 215 215 213 210 212 216 217 217 216 215 215 216 217 217 215 213 211 209 211 213 214 216 216 216 216 215 210 205 204 201 195 186 176 166 153 139 130 123 116 111 106 103 102 101 102 103 103 104 107
276 277 275 275 273 267 259 251 242 237 234 230 226 220 213 209 209 209 209 212 211 210 210 209 206 206 206 205 204 199 200 207 205 197 196 203 211 214 214 214 212 212 216 217 216 216 216 216 216 217 218 218 217 214 212 213 214 216 219 220 218 218 219 215 210 206 203 200 195 190 187 180 170 158 147 137 130 123 117 112 107 103 104 104 104 105
277 278 278 278 275 271 263 253 244 238 232 226 222 218 212 208 209 209 208 210 211 210 211 209 205 205 205 206 204 200 201 206 204 200 197 201 210 214 213 214 214 213 217 219 218 217 217 217 217 218 219 220 220 218 216 216 216 217 221 222 220 219 220 217 213 207 204 200 196 194 193 190 187 184 178 171 165 162 156 148 141 131 123 116 112 112
276 277 278 279 277 274 266 255 245 237 230 222 216 213 210 206 207 208 208 209 210 210 211 209 206 204 204 206 204 201 202 205 204 202 199 201 210 214 214 215 215 215 217 219 219 218 217 218 218 218 219 220 221 220 218 217 216 216 219 221 221 220 220 218 213 208 205 201 197 196 195 194 194 194 194 192 191 190 190 188 185 183 180 177 171 162
274 275 276 278 278 276 271 261 249 236 228 222 213 209 209 207 206 207 207 209 210 209 210 210 207 205 205 205 204 202 203 204 203 202 200 202 209 214 214 214 215 216 218 220 221 219 218 219 219 219 219 220 221 221 220 219 217 216 216 217 219 221 221 218 213 208 206 204 202 201 201 201 202 204 204 205 206 206 206 205 204 204 201 200 203 204
273 274 274 276 278 277 274 268 255 239 228 221 213 208 208 209 210 209 207 208 210 209 209 210 209 207 205 203 203 203 203 203 203 202 201 203 209 213 215 214 214 216 218 220 221 221 220 220 221 221 221 221 222 222 221 220 218 217 215 214 216 219 221 220 215 211 209 208 207 208 209 211 213 214 215 215 217 218 219 218 217 216 215 213 213 214
274 274 274 274 276 275 274 271 261 247 233 222 216 211 208 209 213 213 209 207 208 209 209 210 209 208 206 204 203 204 203 202 203 203 201 203 208 212 215 215 215 217 218 219 223 223 221 221 222 223 224 223 223 223 223 221 220 219 217 215 215 217 220 221 219 215 213 213 215 217 219 222 223 224 223 224 225 225 225 227 228 227 228 228 227 227
278 276 275 273 275 274 272 272 267 255 242 228 220 216 213 212 214 215 213 210 207 207 208 210 210 208 207 205 205 205 205 204 205 203 201 203 206 209 213 215 215 217 217 218 223 225 224 225 224 223 225 226 226 225 224 223 222 221 220 218 217 218 220 222 222 220 218 218 221 223 227 230 229 229 227 227 228 228 226 229 232 232 235 239 242 245
282 279 277 274 273 274 273 272 270 263 252 239 227 222 218 216 216 215 213 212 208 205 206 208 208 206 205 207 208 206 205 206 206 203 201 202 203 205 209 212 214 217 217 217 221 225 226 228 228 227 227 228 228 227 226 225 224 222 221 221 220 221 222 224 225 224 223 222 223 226 230 232 232 232 230 231 233 233 232 233 235 235 234 235 239 244
287 283 281 277 273 274 274 271 271 268 260 251 238 230 224 220 218 215 212 212 210 207 205 207 207 205 203 207 210 207 205 208 208 203 201 201 199 201 205 208 211 215 217 217 221 226 227 228 230 233 234 231 229 229 228 227 226 224 224 223 223 224 225 227 228 228 227 226 225 228 232 233 234 234 234 235 238 240 240 240 241 241 239 237 237 238
294 289 287 285 277 274 274 272 272 270 265 260 249 239 230 222 219 216 212 210 210 209 207 206 208 206 202 203 207 206 205 209 210 204 201 201 198 196 200 205 209 213 214 214 217 221 224 224 227 232 235 232 229 228 228 228 228 227 226 225 226 227 228 229 230 230 230 230 229 232 235 236 237 237 237 239 241 242 243 243 244 247 248 246 244 243
298 298 297 295 285 277 274 273 273 270 267 262 252 246 236 223 219 217 214 211 210 209 208 206 207 208 204 203 207 208 205 208 210 205 201 202 199 194 197 202 208 212 214 213 213 215 216 216 218 224 227 227 227 227 227 228 229 228 228 227 227 228 228 229 231 231 231 232 232 235 238 239 239 240 240 240 243 245 246 245 246 248 250 251 253 253
299 304 306 305 295 282 274 270 271 271 268 263 255 248 238 225 219 217 215 212 210 210 209 207 207 207 205 204 209 210 207 206 208 205 201 202 201 195 195 199 205 211 215 215 215 216 215 212 213 218 223 224 226 226 226 226 228 229 229 229 228 229 229 230 231 231 232 232 231 233 237 240 241 243 243 244 245 246 247 249 250 250 251 253 255 255
295 304 310 313 307 293 280 271 270 270 268 266 259 248 239 229 221 217 215 213 212 211 210 209 209 208 206 205 209 210 208 206 208 205 202 203 203 198 195 198 202 209 213 215 217 218 219 218 218 220 225 227 228 229 228 227 228 229 229 229 229 229 229 230 230 231 231 231 230 232 236 240 243 245 246 246 247 247 247 250 252 253 254 253 252 253
290 299 308 316 316 308 294 278 271 270 270 271 265 254 243 233 226 219 215 213 212 211 209 208 208 209 208 208 209 210 208 207 208 207 204 204 206 204 201 201 204 208 211 215 218 219 220 222 223 223 225 228 230 232 232 231 230 230 230 230 230 230 230 230 230 231 232 231 232 234 237 241 244 246 248 247 248 248 248 249 251 251 251 251 252 254
287 294 301 312 318 318 311 294 278 271 270 272 270 261 251 240 231 224 218 213 212 211 209 207 206 207 209 210 210 209 208 206 207 208 206 205 207 207 206 207 208 209 211 214 219 221 221 222 224 225 226 228 230 233 234 233 233 233 232 232 232 232 232 231 231 231 232 233 234 235 238 241 244 247 249 249 248 248 248 248 250 251 251 252 255 257
285 290 295 304 311 318 322 314 295 281 272 272 272 266 260 251 239 230 221 215 212 211 210 209 207 206 206 208 208 209 207 205 206 207 206 206 208 210 211 212 211 209 211 214 218 222 223 224 225 226 228 229 230 232 233 234 234 234 234 233 233 233 233 234 233 232 233 234 234 234 236 240 242 244 247 248 247 248 248 248 248 250 251 252 253 256
286 289 292 299 304 309 320 324 315 298 278 272 274 270 266 261 251 240 224 215 211 210 209 210 209 207 206 206 207 208 208 206 206 207 207 207 209 211 213 214 213 211 211 214 217 220 224 226 226 227 228 228 230 232 235 236 235 235 235 234 234 234 233 234 234 234 234 234 234 233 234 238 241 243 245 246 247 248 249 249 248 248 249 249 249 251
288 290 292 296 300 304 312 321 324 315 290 275 273 272 272 268 259 251 227 213 210 207 206 208 209 208 209 210 209 208 209 209 208 208 209 208 208 210 212 213 214 213 211 214 217 219 222 225 226 227 228 229 229 231 234 237 236 234 234 234 234 234 234 233 234 234 234 235 235 235 234 237 240 243 245 247 248 249 249 250 250 250 249 249 248 247
289 291 291 295 300 303 308 315 323 323 307 285 275 272 274 270 262 258 235 217 210 205 204 206 207 206 207 210 210 209 209 210 209 209 210 210 209 210 212 213 214 213 211 213 216 218 220 224 226 227 228 229 230 232 234 236 236 234 232 232 232 233 234 233 233 234 235 235 235 236 236 237 240 242 244 246 247 247 249 250 250 250 250 250 250 249
287 288 291 296 300 304 308 311 316 321 316 301 285 274 274 272 264 259 244 220 209 203 203 206 206 203 202 205 212 212 210 209 210 209 210 212 211 212 214 214 215 214 212 213 216 218 220 223 225 226 227 228 229 231 232 234 235 235 234 233 233 234 235 235 235 235 235 236 236 237 237 238 239 241 243 244 245 245 246 248 249 249 249 250 251 252
284 288 292 296 299 302 307 310 311 315 318 313 299 281 272 271 267 258 243 221 209 204 204 207 207 203 198 197 205 212 210 209 211 211 211 213 213 213 215 216 216 216 214 214 217 219 220 223 225 226 227 228 228 229 231 232 234 236 237 238 238 237 237 238 238 237 237 237 237 238 239 239 241 243 245 245 246 246 246 247 248 249 249 250 251 253
284 287 287 291 295 299 304 309 309 311 314 315 308 291 272 266 265 260 247 228 215 208 206 206 207 204 199 196 199 204 206 208 210 210 211 213 213 213 215 217 217 217 216 215 218 219 220 223 225 226 228 229 230 230 231 233 234 236 237 239 241 242 241 241 241 240 240 239 239 239 240 241 242 243 245 247 247 247 248 248 248 248 249 251 252 253
281 283 283 286 291 295 299 305 309 310 311 311 309 298 280 265 260 260 253 238 226 214 209 209 209 205 200 199 201 203 203 204 206 208 210 212 212 213 216 217 218 218 217 216 218 219 219 221 224 225 227 229 230 231 232 234 236 237 239 240 241 242 243 243 243 242 243 243 242 241 241 242 243 243 244 246 247 247 248 248 248 248 248 249 252 254
277 279 280 282 286 290 294 300 307 310 309 309 308 303 289 272 260 258 255 245 236 224 214 213 212 207 202 201 203 204 205 205 205 206 209 212 213 214 216 218 219 218 216 216 218 219 218 219 221 224 225 227 229 231 233 234 236 239 240 242 241 241 242 245 246 245 244 244 245 244 242 242 243 243 245 246 247 247 248 249 249 249 247 247 249 251
272 274 277 281 283 286 291 297 303 307 308 308 308 304 296 281 263 255 253 246 239 232 222 218 215 209 203 201 202 203 206 207 206 205 207 210 213 215 216 217 219 217 214 215 217 218 217 217 219 222 224 225 227 230 233 234 236 237 240 242 244 244 245 246 247 246 245 245 245 246 246 245 245 245 247 248 249 250 251 252 252 251 249 246 246 247
268 271 276 279 280 283 289 294 298 301 304 307 308 304 299 288 269 255 250 246 240 235 228 223 219 212 206 203 203 204 206 208 207 205 206 208 211 214 216 217 219 217 213 212 214 216 217 218 218 219 222 223 224 226 230 233 234 236 238 241 244 246 247 247 246 245 244 244 244 245 246 247 248 249 250 251 252 253 253 253 253 252 250 248 246 246
267 270 273 276 279 283 287 290 292 295 299 304 308 307 300 290 274 257 250 246 241 236 229 224 222 216 209 205 205 205 207 207 206 206 207 207 209 212 215 217 220 219 215 212 212 215 218 220 220 219 219 222 223 223 225 229 231 233 236 239 240 243 245 247 247 246 245 245 245 245 246 247 248 249 250 251 252 253 254 254 254 252 251 250 248 247
266 269 271 273 278 281 284 286 288 290 294 300 306 306 301 293 280 261 250 245 243 239 231 223 222 219 211 207 206 207 207 208 207 207 208 208 208 211 215 217 219 221 218 214 213 215 218 219 221 221 220 222 223 223 224 227 228 229 232 235 237 239 240 241 243 244 245 245 245 244 245 245 246 246 247 247 247 247 248 250 251 252 252 252 251 249
Height
10906 10908 10911 10913 10917 10920 10923 10928 10931 10932 10936 10941 10944 10948 10953 10957 10962 10967 10971 10974 10977 10981 10983 10984 10986 10988 10991 10992 10994 10995 10995 10994 10996 10997 10997 10997 10997 10997 10997 10997 10998 10998 10997 10996 10995 10994 10992 10990 10988 10986 10984 10983 10982 10980 10978 10975 10973 10971 10968 10966 10965 10964 10963 10962 10961 10961 10961 10961 10961 10961 10962 10962 10962 10963 10963 10963 10963 10964 10964 10964 10964 10963 10963 10963 10963 10963
10901 10904 10906 10908 10911 10914 10919 10923 10926 10928 10932 10936 10939 10943 10947 10951 10956 10961 10965 10969 10973 10976 10976 10978 10982 10986 10989 10990 10992 10993 10992 10993 10994 10996 10996 10996 10996 10996 10996 10997 10997 10998 10998 10997 10996 10995 10994 10992 10991 10989 10986 10985 10984 10983 10981 10978 10976 10973 10971 10969 10968 10966 10965 10964 10963 10963 10963 10963 10963 10963 10963 10964 10964 10964 10965 10965 10965 10966 10965 10965 10965 10965 10965 10965 10965 10965
10897 10899 10901 10903 10906 10909 10913 10918 10921 10924 10928 10931 10934 10938 10941 10945 10950 10956 10960 10964 10969 10971 10973 10976 10979 10984 10987 10988 10990 10991 10991 10992 10993 10993 10993 10994 10995 10995 10996 10996 10997 10997 10998 10998 10997 10997 10995 10994 10993 10991 10989 10987 10986 10985 10983 10981 10979 10976 10974 10972 10970 10969 10968 10967 10966 10965 10965 10965 10965 10965 10965 10966 10966 10966 10967 10967 10967 10968 10967 10967 10967 10967 10967 10968 10968 10968
10892 10894 10896 10898 10901 10904 10907 10911 10915 10919 10922 10926 10929 10932 10935 10940 10946 10952 10956 10960 10964 10967 10971 10974 10976 10981 10984 10986 10987 10988 10989 10990 10991 10990 10991 10992 10994 10995 10995 10995 10996 10997 10998 10998 10998 10998 10997 10996 10995 10993 10991 10989 10988 10987 10986 10984 10981 10979 10977 10975 10973 10972 10971 10970 10969 10968 10967 10967 10967 10968 10968 10968 10968 10968 10969 10969 10969 10970 10970 10970 10970 10970 10970 10970 10970 10970
10887 10888 10891 10893 10895 10898 10902 10906 10910 10914 10918 10921 10925 10927 10931 10937 10942 10947 10950 10954 10959 10963 10966 10968 10971 10977 10981 10982 10984 10986 10987 10988 10988 10989 10991 10992 10993 10994 10995 10995 10996 10996 10997 10998 10999 10999 10998 10997 10996 10995 10993 10991 10990 10989 10988 10986 10984 10982 10980 10978 10976 10975 10974 10973 10972 10971 10971 10970 10970 10971 10971 10971 10971 10971 10971 10971 10972 10972 10972 10973 10973 10972 10973 10973 10973 10972
10882 10883 10886 10888 10890 10894 10897 10901 10905 10909 10913 10916 10919 10922 10927 10933 10938 10941 10943 10947 10952 10956 10959 10963 10967 10973 10977 10979 10981 10983 10984 10985 10987 10988 10990 10992 10993 10993 10994 10995 10995 10996 10997 10998 10999 10999 10999 10999 10998 10997 10995 10993 10991 10991 10990 10989 10987 10985 10983 10981 10979 10978 10977 10976 10975 10974 10974 10973 10973 10973 10973 10973 10973 10973 10973 10974 10974 10974 10975 10976 10976 10975 10975 10975 10975 10975
10877 10878 10881 10883 10886 10888 10891 10895 10899 10903 10907 10911 10915 10919 10923 10929 10932 10934 10937 10941 10945 10950 10954 10958 10964 10969 10973 10976 10977 10979 10981 10983 10985 10987 10989 10991 10992 10993 10994 10994 10995 10996 10997 10998 10998 10999 10999 10999 10999 10998 10997 10995 10993 10993 10992 10991 10989 10988 10986 10985 10983 10981 10980 10978 10977 10977 10976 10976 10976 10976 10976 10976 10976 10976 10976 10976 10977 10977 10977 10978 10979 10978 10978 10978 10978 10979
10872 10873 10876 10878 10880 10883 10886 10889 10893 10896 10900 10904 10909 10914 10918 10922 10925 10927 10931 10935 10940 10945 10949 10954 10959 10964 10969 10972 10974 10976 10979 10980 10982 10984 10987 10989 10990 10991 10993 10994 10994 10995 10996 10997 10998 10998 10999 11000 11000 10999 10999 10997 10995 10994 10994 10993 10992 10990 10989 10988 10986 10984 10983 10981 10980 10979 10979 10979 10979 10979 10978 10978 10978 10978 10979 10979 10979 10979 10979 10980 10981 10980 10981 10981 10981 10982
10868 10869 10870 10873 10875 10877 10880 10883 10886 10890 10893 10899 10904 10907 10911 10916 10919 10922 10925 10930 10935 10940 10943 10948 10953 10959 10965 10968 10969 10972 10975 10977 10979 10982 10984 10986 10988 10990 10992 10993 10994 10995 10996 10997 10997 10998 10999 11000 11000 11000 11000 10999 10997 10996 10996 10995 10994 10993 10992 10990 10989 10987 10985 10984 10983 10982 10981 10981 10981 10981 10981 10981 10980 10980 10981 10981 10981 10981 10982 10982 10983 10983 10984 10984 10985 10985
10863 10864 10865 10867 10869 10871 10874 10877 10880 10883 10887 10894 10897 10900 10905 10910 10912 10915 10919 10925 10931 10935 10939 10944 10950 10955 10960 10963 10964 10968 10971 10973 10976 10979 10981 10984 10986 10988 10990 10992 10993 10994 10995 10996 10997 10998 10999 11000 11000 11001 11001 11000 10999 10998 10998 10997 10996 10995 10994 10993 10992 10990 10988 10987 10986 10985 10984 10983 10983 10983 10983 10983 10983 10983 10983 10984 10984 10984 10985 10985 10986 10986 10987 10987 10988 10988
10857 10858 10860 10861 10863 10865 10867 10870 10874 10877 10882 10887 10889 10893 10899 10902 10906 10910 10915 10921 10926 10930 10936 10943 10946 10950 10956 10958 10961 10964 10967 10970 10973 10976 10979 10981 10984 10986 10988 10990 10992 10993 10994 10995 10997 10998 10999 11000 11000 11001 11002 11001 11000 10999 10999 10999 10998 10997 10995 10995 10994 10993 10992 10990 10989 10987 10987 10986 10986 10986 10986 10986 10986 10986 10986 10986 10987 10987 10987 10988 10988 10989 10989 10990 10991 10992
10851 10853 10854 10855 10857 10859 10861 10864 10867 10871 10875 10879 10882 10887 10891 10895 10899 10903 10909 10916 10920 10925 10933 10940 10943 10946 10951 10954 10957 10960 10963 10967 10970 10973 10976 10979 10981 10983 10985 10988 10990 10991 10992 10994 10996 10997 10998 10999 11000 11001 11002 11002 11002 11001 11000 11000 11000 10999 10997 10997 10996 10995 10994 10993 10992 10990 10989 10989 10988 10988 10988 10988 10988 10988 10988 10989 10989 10990 10990 10991 10991 10992 10993 10993 10994 10995
10845 10846 10848 10849 10851 10853 10855 10857 10861 10864 10868 10872 10876 10879 10883 10889 10893 10896 10903 10910 10914 10920 10928 10933 10936 10941 10946 10949 10952 10955 10958 10964 10967 10970 10973 10976 10979 10981 10983 10986 10989 10990 10991 10993 10994 10996 10998 10999 11000 11000 11001 11002 11002 11002 11001 11001 11001 11000 10999 10998 10998 10997 10996 10996 10995 10993 10992 10991 10991 10991 10990 10990 10991 10991 10991 10992 10992 10992 10993 10993 10994 10995 10995 10996 10997 10998
10839 10840 10841 10843 10844 10846 10849 10851 10854 10857 10861 10865 10869 10871 10877 10883 10886 10891 10898 10903 10907 10913 10920 10923 10927 10933 10939 10944 10949 10952 10955 10961 10965 10967 10970 10973 10976 10978 10981 10984 10987 10989 10991 10992 10993 10995 10997 10998 10999 11000 11001 11002 11002 11003 11002 11002 11002 11002 11001 10999 10999 10999 10998 10998 10997 10996 10995 10994 10993 10993 10993 10993 10993 10993 10993 10994 10994 10995 10995 10996 10997 10997 10998 10999 11000 11001
10833 10834 10835 10837 10838 10840 10841 10843 10846 10850 10854 10858 10861 10866 10871 10876 10880 10887 10893 10897 10901 10907 10914 10918 10922 10927 10933 10939 10945 10950 10953 10958 10962 10964 10967 10970 10973 10976 10979 10981 10985 10988 10989 10990 10992 10994 10995 10997 10998 10999 11000 11001 11002 11003 11003 11003 11002 11002 11002 11001 11000 11000 11000 10999 10999 10999 10998 10997 10996 10996 10995 10995 10995 10995 10995 10996 10997 10997 10997 10998 10999 10999 11000 11001 11002 11003
10828 10828 10829 10830 10831 10833 10834 10836 10839 10842 10846 10851 10856 10861 10864 10868 10875 10883 10887 10891 10897 10904 10910 10914 10918 10923 10929 10935 10942 10947 10951 10955 10958 10961 10964 10967 10970 10973 10975 10978 10981 10984 10986 10988 10990 10992 10994 10995 10997 10999 11000 11001 11002 11003 11003 11003 11003 11003 11003 11002 11001 11001 11001 11001 11001 11000 11000 11000 10999 10998 10998 10997 10997 10997 10997 10998 10998 10999 11000 11000 11001 11002 11002 11003 11004 11005
10823 10824 10825 10825 10825 10826 10827 10829 10832 10834 10838 10844 10850 10854 10856 10862 10870 10876 10880 10886 10893 10900 10903 10906 10911 10918 10924 10931 10937 10943 10947 10950 10954 10958 10960 10963 10967 10970 10972 10974 10977 10980 10983 10985 10987 10990 10992 10993 10995 10998 10999 11000 11001 11002 11003 11003 11003 11003 11003 11003 11002 11002 11002 11002 11002 11002 11002 11002 11001 11001 11000 11000 11000 11000 11000 11000 11000 11001 11002 11003 11003 11004 11005 11006 11007 11007
10818 10819 10820 10819 10819 10820 10821 10822 10825 10828 10832 10837 10843 10846 10851 10857 10862 10867 10873 10880 10887 10892 10895 10900 10905 10911 10918 10924 10930 10936 10941 10945 10949 10952 10956 10960 10964 10967 10969 10972 10975 10977 10980 10982 10985 10988 10990 10992 10994 10996 10998 10999 11000 11002 11003 11003 11003 11003 11003 11003 11003 11003 11003 11003 11004 11004 11004 11003 11003 11003 11002 11002 11002 11002 11002 11002 11002 11002 11003 11004 11005 11006 11007 11008 11009 11010
10813 10815 10815 10815 10815 10815 10816 10817 10819 10821 10825 10830 10835 10839 10845 10850 10855 10861 10868 10873 10878 10883 10888 10894 10899 10904 10911 10918 10923 10929 10933 10938 10943 10948 10952 10956 10960 10964 10967 10970 10973 10975 10977 10979 10982 10986 10988 10990 10992 10994 10997 10998 10999 11001 11002 11002 11003 11003 11003 11004 11004 11004 11004 11004 11005 11005 11005 11005 11005 11005 11004 11004 11004 11004 11004 11005 11005 11005 11005 11006 11007 11008 11009 11010 11011 11012
10809 10810 10810 10811 10810 10810 10811 10812 10813 10814 10818 10823 10827 10832 10839 10843 10847 10854 10860 10865 10870 10875 10880 10885 10890 10898 10906 10912 10918 10923 10927 10933 10940 10945 10950 10953 10956 10960 10964 10967 10970 10970 10971 10975 10980 10983 10986 10987 10990 10992 10995 10997 10998 10999 11001 11002 11002 11003 11003 11004 11004 11005 11005 11005 11006 11006 11007 11006 11006 11006 11006 11006 11006 11006 11006 11007 11007 11007 11007 11008 11009 11009 11010 11011 11012 11013
10805 10805 10806 10806 10806 10806 10806 10806 10807 10808 10811 10815 10819 10824 10831 10835 10840 10846 10851 10857 10862 10867 10873 10877 10883 10893 10901 10907 10912 10917 10923 10930 10935 10940 10945 10949 10952 10956 10960 10963 10964 10964 10967 10972 10976 10980 10983 10985 10988 10990 10993 10995 10996 10997 10999 11000 11001 11002 11002 11003 11004 11005 11005 11006 11006 11007 11008 11008 11008 11008 11008 11008 11008 11008 11008 11008 11009 11009 11009 11010 11010 11011 11012 11012 11013 11014
10802 10802 10802 10801 10801 10802 10801 10801 10802 10802 10804 10807 10810 10816 10822 10828 10834 10839 10842 10847 10852 10860 10866 10871 10880 10891 10898 10903 10908 10913 10920 10926 10930 10935 10939 10943 10946 10950 10954 10958 10960 10961 10965 10969 10972 10976 10980 10983 10986 10988 10991 10993 10994 10995 10997 10999 11000 11001 11002 11003 11004 11005 11005 11006 11007 11007 11008 11009 11009 11009 11009 11009 11009 11009 11010 11010 11010 11011 11011 11012 11012 11013 11013 11014 11014 11015
10798 10798 10798 10797 10796 10797 10797 10797 10797 10797 10798 10801 10804 10809 10814 10820 10827 10831 10835 10840 10846 10853 10857 10864 10877 10886 10891 10896 10901 10909 10918 10921 10925 10931 10934 10936 10939 10942 10948 10953 10956 10959 10962 10964 10968 10972 10976 10980 10983 10986 10988 10990 10991 10993 10995 10997 10999 11001 11002 11003 11004 11004 11005 11006 11007 11007 11008 11009 11010 11010 11011 11011 11011 11011 11011 11011 11012 11012 11013 11013 11014 11014 11014 11015 11015 11016
10795 10795 10794 10794 10793 10793 10793 10792 10792 10792 10793 10796 10800 10803 10807 10813 10819 10824 10829 10835 10840 10846 10850 10858 10869 10878 10885 10892 10897 10907 10913 10913 10917 10923 10926 10929 10932 10937 10943 10948 10952 10955 10957 10960 10965 10969 10973 10977 10980 10983 10985 10987 10989 10991 10993 10995 10997 11000 11001 11002 11003 11004 11005 11006 11006 11007 11008 11009 11010 11010 11011 11011 11012 11012 11012 11012 11013 11013 11014 11014 11015 11015 11016 11016 11017 11017
10791 10791 10791 10790 10790 10789 10789 10789 10788 10788 10789 10791 10794 10797 10801 10806 10811 10815 10821 10827 10834 10840 10845 10852 10863 10872 10881 10887 10893 10901 10906 10907 10912 10917 10922 10926 10928 10932 10939 10944 10948 10952 10954 10959 10963 10967 10970 10974 10977 10980 10982 10985 10987 10989 10991 10993 10996 10998 11000 11001 11003 11003 11004 11005 11006 11007 11008 11009 11010 11010 11011 11011 11012 11012 11012 11013 11013 11013 11014 11014 11015 11016 11016 11017 11017 11018
10788 10787 10787 10786 10786 10786 10785 10785 10784 10783 10784 10786 10787 10789 10792 10796 10801 10807 10814 10820 10827 10833 10840 10848 10857 10866 10872 10876 10884 10895 10900 10903 10910 10915 10920 10925 10925 10928 10935 10941 10945 10949 10953 10957 10961 10963 10967 10970 10973 10977 10980 10982 10984 10986 10989 10991 10993 10996 10998 11000 11002 11002 11003 11004 11005 11006 11007 11008 11009 11010 11010 11011 11011 11011 11012 11012 11012 11013 11013 11014 11014 11015 11016 11016 11017 11018
10784 10784 10784 10783 10783 10782 10782 10781 10780 10779 10779 10780 10782 10784 10786 10790 10794 10801 10808 10814 10821 10828 10835 10843 10850 10857 10862 10869 10881 10891 10895 10901 10908 10913 10918 10921 10921 10923 10929 10935 10942 10946 10949 10953 10956 10960 10964 10967 10970 10974 10976 10979 10981 10984 10986 10988 10990 10992 10995 10997 10999 11000 11001 11002 11004 11005 11006 11007 11008 11009 11010 11010 11010 11010 11011 11011 11011 11011 11011 11012 11012 11013 11014 11015 11016 11017
10781 10781 10780 10780 10779 10779 10778 10777 10777 10776 10776 10776 10778 10780 10783 10787 10790 10794 10800 10807 10815 10822 10828 10834 10843 10851 10858 10866 10876 10883 10890 10899 10904 10906 10909 10914 10916 10918 10923 10929 10936 10941 10944 10947 10952 10957 10961 10964 10967 10971 10973 10976 10978 10981 10983 10985 10987 10989 10991 10993 10996 10997 10998 11000 11001 11003 11004 11006 11007 11008 11009 11009 11009 11009 11009 11009 11010 11010 11010 11011 11011 11012 11012 11013 11014 11015
10778 10777 10777 10777 10776 10775 10775 10774 10774 10773 10773 10773 10775 10777 10780 10783 10786 10789 10795 10799 10806 10815 10822 10828 10838 10847 10856 10864 10871 10878 10886 10891 10891 10893 10901 10908 10912 10914 10919 10925 10931 10936 10940 10945 10950 10954 10958 10961 10964 10967 10970 10973 10975 10978 10980 10982 10984 10986 10988 10990 10991 10993 10995 10996 10999 11001 11002 11004 11006 11007 11008 11008 11008 11008 11008 11009 11009 11008 11009 11009 11010 11011 11012 11013 11014 11015
10775 10774 10773 10773 10773 10772 10772 10771 10771 10770 10770 10770 10771 10773 10775 10777 10780 10785 10790 10793 10798 10807 10816 10824 10834 10845 10856 10863 10868 10875 10882 10882 10882 10889 10899 10905 10908 10911 10915 10921 10927 10932 10938 10943 10948 10951 10955 10957 10960 10964 10967 10970 10972 10975 10977 10979 10981 10983 10985 10987 10988 10989 10991 10993 10995 10998 11000 11002 11004 11005 11006 11006 11006 11007 11007 11007 11006 11005 11006 11007 11009 11011 11012 11014 11015 11016
10772 10771 10770 10770 10769 10768 10768 10768 10767 10767 10767 10767 10767 10768 10769 10771 10774 10778 10783 10788 10794 10800 10807 10816 10827 10839 10853 10861 10865 10872 10879 10878 10880 10888 10896 10901 10905 10908 10912 10917 10922 10927 10934 10941 10945 10948 10950 10954 10958 10961 10963 10966 10968 10971 10973 10975 10977 10979 10982 10983 10984 10986 10987 10989 10992 10995 10997 11000 11003 11003 11003 11003 11004 11005 11006 11005 11004 11004 11006 11007 11009 11010 11012 11013 11014 11015
10769 10768 10767 10766 10766 10765 10764 10764 10764 10764 10764 10763 10763 10764 10764 10766 10769 10772 10777 10783 10790 10795 10800 10808 10818 10828 10838 10846 10855 10868 10876 10874 10874 10881 10888 10895 10901 10905 10908 10913 10916 10921 10930 10938 10942 10944 10946 10951 10956 10957 10959 10961 10963 10965 10968 10970 10972 10975 10977 10979 10981 10983 10985 10986 10988 10991 10994 10998 11000 11000 11000 11000 11001 11002 11003 11003 11003 11004 11005 11006 11007 11009 11010 11011 11012 11013
10765 10765 10764 10763 10763 10762 10761 10761 10761 10761 10761 10760 10759 10759 10760 10762 10765 10767 10771 10776 10783 10790 10796 10803 10811 10819 10827 10836 10848 10861 10866 10864 10865 10873 10881 10888 10896 10901 10904 10907 10910 10914 10923 10930 10934 10937 10941 10946 10951 10951 10952 10955 10956 10958 10961 10964 10967 10970 10972 10975 10977 10980 10982 10984 10985 10988 10992 10995 10997 10998 10998 10998 10998 10999 10999 11000 11000 11001 11002 11004 11005 11006 11007 11008 11009 11011
10762 10761 10760 10760 10759 10759 10758 10758 10757 10758 10758 10757 10756 10756 10757 10758 10760 10762 10766 10771 10777 10783 10789 10796 10803 10814 10827 10838 10844 10849 10853 10854 10859 10868 10876 10883 10891 10896 10898 10901 10904 10908 10914 10920 10923 10927 10932 10939 10943 10944 10944 10946 10946 10949 10953 10957 10960 10964 10967 10970 10972 10975 10978 10980 10982 10985 10988 10991 10995 10996 10996 10995 10995 10995 10996 10997 10998 10998 10999 11000 11001 11003 11004 11005 11007 11009
10759 10758 10757 10757 10756 10755 10755 10754 10754 10755 10754 10754 10754 10753 10753 10754 10756 10758 10762 10766 10772 10778 10784 10792 10799 10809 10823 10832 10834 10836 10844 10850 10856 10865 10873 10879 10885 10890 10893 10896 10900 10903 10908 10914 10919 10922 10926 10929 10932 10933 10934 10935 10937 10940 10945 10949 10954 10959 10962 10965 10967 10970 10973 10976 10979 10981 10984 10987 10991 10992 10992 10991 10991 10992 10993 10994 10995 10996 10996 10997 10998 11000 11001 11002 11004 11005
10756 10755 10754 10754 10753 10752 10751 10751 10751 10751 10751 10751 10751 10750 10750 10751 10752 10754 10757 10762 10769 10775 10781 10789 10797 10806 10816 10823 10824 10829 10839 10846 10853 10863 10871 10875 10880 10885 10889 10893 10896 10899 10904 10910 10915 10919 10921 10922 10923 10924 10926 10928 10931 10934 10939 10944 10949 10953 10956 10959 10961 10964 10967 10970 10973 10976 10978 10982 10985 10986 10987 10988 10989 10989 10990 10990 10991 10992 10993 10994 10995 10996 10997 10998 11000 11001
10753 10752 10752 10751 10750 10749 10748 10748 10748 10748 10748 10748 10747 10747 10747 10747 10748 10750 10751 10755 10762 10768 10774 10782 10790 10799 10807 10813 10817 10825 10836 10845 10851 10858 10864 10869 10873 10879 10884 10888 10892 10896 10900 10906 10911 10913 10915 10917 10918 10920 10923 10924 10927 10931 10935 10939 10943 10946 10949 10952 10955 10958 10960 10964 10967 10969 10972 10976 10979 10982 10985 10986 10987 10986 10985 10985 10986 10988 10989 10990 10991 10992 10993 10994 10996 10996
10750 10749 10749 10748 10747 10746 10745 10745 10744 10744 10745 10744 10743 10744 10744 10744 10745 10745 10746 10750 10755 10760 10768 10776 10782 10787 10796 10804 10812 10822 10833 10839 10842 10847 10855 10862 10866 10872 10877 10882 10888 10892 10895 10901 10906 10908 10910 10912 10913 10917 10920 10921 10924 10927 10931 10934 10937 10940 10943 10946 10949 10952 10955 10958 10961 10963 10967 10971 10975 10980 10982 10983 10984 10981 10978 10979 10982 10983 10985 10986 10986 10987 10988 10991 10992 10991
10747 10747 10746 10745 10745 10743 10743 10742 10741 10741 10741 10740 10740 10740 10740 10740 10741 10741 10743 10746 10750 10756 10765 10773 10776 10779 10789 10801 10811 10820 10826 10829 10831 10838 10847 10853 10857 10863 10869 10875 10882 10888 10891 10895 10900 10903 10905 10906 10909 10913 10916 10917 10919 10922 10925 10928 10931 10933 10937 10940 10943 10946 10948 10951 10954 10958 10962 10966 10970 10975 10977 10977 10976 10973 10970 10973 10977 10977 10979 10981 10982 10983 10984 10986 10988 10986
10744 10744 10743 10743 10742 10741 10740 10740 10739 10738 10738 10737 10736 10736 10737 10737 10737 10738 10739 10741 10744 10750 10759 10767 10772 10779 10789 10800 10807 10812 10816 10819 10823 10828 10832 10835 10841 10850 10859 10866 10874 10881 10886 10889 10894 10897 10899 10901 10903 10904 10906 10909 10913 10915 10918 10920 10923 10927 10930 10933 10936 10938 10941 10944 10948 10952 10956 10960 10964 10968 10969 10969 10968 10965 10963 10967 10969 10970 10972 10974 10976 10978 10980 10981 10983 10981
10741 10741 10740 10740 10739 10738 10737 10737 10736 10735 10734 10734 10733 10733 10734 10734 10734 10734 10735 10736 10739 10744 10752 10760 10768 10778 10789 10797 10800 10803 10806 10809 10812 10817 10820 10824 10831 10839 10849 10857 10865 10872 10879 10883 10886 10889 10890 10891 10893 10894 10898 10902 10906 10909 10912 10913 10916 10920 10923 10926 10928 10931 10933 10937 10941 10945 10950 10954 10957 10960 10962 10962 10960 10957 10958 10961 10962 10962 10964 10967 10970 10972 10973 10974 10976 10975
10737 10737 10737 10737 10736 10735 10735 10734 10734 10733 10731 10731 10730 10730 10730 10731 10731 10731 10732 10733 10736 10740 10746 10753 10759 10767 10780 10791 10793 10793 10796 10799 10804 10812 10819 10824 10831 10836 10843 10850 10856 10864 10871 10875 10878 10880 10881 10883 10886 10890 10894 10898 10901 10905 10907 10908 10910 10913 10915 10917 10919 10922 10925 10929 10934 10939 10943 10946 10949 10951 10953 10954 10951 10950 10953 10955 10954 10955 10958 10961 10963 10964 10965 10966 10967 10967
10734 10734 10734 10733 10733 10732 10732 10731 10730 10730 10729 10728 10727 10727 10727 10727 10728 10729 10729 10730 10733 10736 10741 10746 10750 10756 10770 10781 10783 10785 10789 10793 10799 10809 10817 10822 10828 10832 10837 10843 10849 10856 10863 10867 10869 10872 10874 10877 10881 10885 10888 10892 10896 10899 10901 10902 10903 10905 10908 10911 10913 10916 10920 10924 10928 10932 10936 10939 10941 10943 10944 10944 10943 10943 10946 10946 10947 10949 10952 10954 10954 10955 10957 10959 10959 10960
10730 10730 10730 10730 10730 10730 10729 10728 10727 10727 10726 10725 10725 10724 10724 10724 10725 10726 10727 10728 10729 10732 10736 10740 10744 10750 10761 10770 10774 10778 10782 10786 10794 10806 10814 10818 10822 10826 10830 10836 10843 10849 10856 10860 10861 10864 10867 10870 10874 10877 10881 10885 10888 10891 10893 10895 10896 10898 10902 10905 10907 10911 10914 10917 10921 10925 10929 10932 10934 10935 10935 10936 10936 10937 10938 10939 10941 10943 10944 10945 10946 10948 10950 10951 10952 10953
10727 10727 10727 10727 10727 10726 10726 10725 10724 10723 10723 10722 10721 10721 10721 10721 10722 10723 10724 10725 10726 10728 10731 10735 10739 10745 10754 10761 10765 10768 10772 10780 10791 10803 10810 10812 10816 10820 10824 10829 10836 10842 10848 10852 10855 10857 10860 10864 10866 10869 10874 10878 10881 10883 10884 10886 10888 10891 10895 10898 10901 10904 10907 10910 10913 10917 10921 10924 10925 10926 10927 10928 10930 10931 10931 10931 10934 10935 10935 10936 10939 10941 10942 10944 10945 10946
10723 10723 10723 10723 10723 10723 10722 10722 10721 10721 10720 10719 10719 10718 10718 10718 10719 10720 10721 10722 10723 10725 10728 10731 10734 10739 10746 10754 10759 10763 10768 10776 10785 10792 10798 10803 10809 10814 10817 10822 10829 10835 10840 10845 10849 10850 10853 10856 10859 10862 10865 10869 10872 10874 10877 10879 10881 10884 10887 10891 10894 10897 10899 10903 10906 10909 10913 10915 10916 10918 10920 10921 10922 10924 10923 10924 10925 10926 10926 10928 10931 10933 10935 10936 10937 10938
10719 10719 10719 10719 10719 10719 10719 10718 10718 10718 10717 10716 10716 10715 10715 10715 10716 10717 10718 10719 10720 10721 10724 10726 10728 10732 10738 10746 10753 10759 10765 10770 10774 10780 10789 10795 10799 10802 10805 10811 10819 10826 10832 10837 10841 10844 10846 10848 10851 10854 10856 10860 10864 10868 10870 10873 10875 10878 10880 10883 10886 10889 10892 10895 10898 10901 10904 10907 10908 10909 10911 10912 10913 10914 10915 10915 10916 10917 10918 10921 10923 10926 10928 10929 10930 10931
10714 10713 10714 10714 10714 10715 10715 10714 10714 10714 10713 10713 10713 10712 10712 10712 10712 10713 10714 10715 10716 10718 10719 10720 10722 10726 10732 10738 10744 10750 10756 10761 10766 10773 10780 10784 10787 10791 10795 10800 10807 10814 10821 10827 10831 10835 10838 10840 10842 10845 10848 10851 10856 10860 10863 10866 10869 10872 10874 10875 10877 10881 10885 10888 10890 10893 10895 10898 10899 10901 10902 10903 10904 10905 10906 10907 10908 10909 10911 10913 10915 10917 10919 10921 10922 10923
10709 10708 10709 10709 10709 10710 10711 10711 10711 10710 10709 10709 10709 10709 10708 10708 10708 10709 10710 10711 10712 10714 10715 10716 10716 10720 10726 10731 10736 10741 10746 10751 10757 10764 10770 10774 10779 10784 10789 10793 10797 10802 10809 10816 10820 10824 10827 10830 10834 10838 10840 10843 10847 10851 10855 10859 10862 10864 10867 10868 10870 10872 10875 10879 10882 10884 10886 10888 10890 10892 10893 10894 10895 10897 10898 10898 10899 10900 10902 10904 10905 10908 10909 10911 10913 10913
10704 10704 10704 10704 10704 10706 10707 10707 10707 10706 10706 10706 10706 10705 10705 10704 10704 10705 10705 10707 10708 10710 10712 10713 10712 10713 10717 10722 10726 10731 10736 10741 10748 10756 10761 10767 10773 10779 10784 10788 10792 10795 10801 10807 10811 10814 10817 10821 10826 10830 10832 10835 10838 10841 10845 10849 10853 10856 10859 10861 10863 10865 10867 10870 10872 10875 10877 10879 10881 10883 10885 10886 10887 10888 10889 10890 10891 10892 10892 10894 10895 10896 10898 10900 10902 10903
10698 10699 10699 10699 10699 10701 10703 10703 10702 10702 10701 10701 10701 10701 10701 10700 10700 10700 10701 10702 10704 10705 10707 10709 10707 10705 10708 10713 10717 10722 10729 10736 10743 10749 10755 10763 10771 10776 10777 10779 10782 10787 10793 10800 10805 10808 10810 10813 10817 10821 10823 10826 10829 10833 10836 10840 10845 10848 10851 10853 10856 10858 10860 10862 10864 10866 10868 10870 10872 10874 10875 10877 10878 10879 10880 10881 10883 10883 10884 10885 10886 10886 10888 10889 10891 10892